Time,TemperatureF,DewpointF,PressureIn,WindDirection,WindDirectionDegrees,WindSpeedMPH,WindSpeedGustMPH,Humidity,HourlyPrecipIn,Conditions,Clouds,dailyrainin,SoftwareType,DateUTC
2013-02-02 00:00:00,30.0,29.0,-100.00,ESE,103,22.0,29.0,97,-99.99,,,-99.99,,2013-02-02 08:00:00,
2013-02-02 01:00:00,29.0,28.0,-100.00,ESE,102,20.0,30.0,97,-99.99,,,-99.99,,2013-02-02 09:00:00,
2013-02-02 02:00:00,29.0,28.0,-100.00,ESE,123,23.0,32.0,97,-99.99,,,-99.99,,2013-02-02 10:00:00,
2013-02-02 03:00:00,31.0,30.0,-100.00,SSE,147,20.0,25.0,97,-99.99,,,-99.99,,2013-02-02 11:00:00,
2013-02-02 04:00:00,29.0,28.0,-100.00,ESE,110,22.0,29.0,96,-99.99,,,-99.99,,2013-02-02 12:00:00,
2013-02-02 05:00:00,29.0,28.0,-100.00,ESE,110,22.0,30.0,97,-99.99,,,-99.99,,2013-02-02 13:00:00,
2013-02-02 06:00:00,30.0,29.0,-100.00,SE,126,21.0,29.0,95,-99.99,,,-99.99,,2013-02-02 14:00:00,
2013-02-02 07:00:00,30.0,28.0,-100.00,SE,142,25.0,35.0,94,-99.99,,,-99.99,,2013-02-02 15:00:00,
2013-02-02 08:00:00,31.0,30.0,-100.00,SE,135,24.0,35.0,95,-99.99,,,-99.99,,2013-02-02 16:00:00,
2013-02-02 08:52:00,31.0,30.0,-100.00,SE,135,24.0,35.0,95,-99.99,,,-99.99,,2013-02-02 16:52:00,
2013-02-02 09:00:00,33.0,32.0,-100.00,SSE,150,21.0,36.0,96,-99.99,,,-99.99,,2013-02-02 17:00:00,
2013-02-02 09:52:00,33.0,32.0,-100.00,SSE,150,21.0,36.0,96,-99.99,,,-99.99,,2013-02-02 17:52:00,
2013-02-02 10:00:00,35.0,33.0,-100.00,ESE,118,24.0,47.0,92,-99.99,,,-99.99,,2013-02-02 18:00:00,
2013-02-02 11:00:00,34.0,32.0,-100.00,SSE,147,28.0,41.0,91,-99.99,,,-99.99,,2013-02-02 19:00:00,
2013-02-02 11:52:00,34.0,32.0,-100.00,SSE,147,28.0,41.0,91,-99.99,,,-99.99,,2013-02-02 19:52:00,
2013-02-02 12:00:00,36.0,33.0,-100.00,ESE,120,20.0,32.0,89,-99.99,,,-99.99,,2013-02-02 20:00:00,
2013-02-02 13:00:00,35.0,29.0,-100.00,SSW,199,20.0,30.0,78,-99.99,,,-99.99,,2013-02-02 21:00:00,
2013-02-02 14:00:00,35.0,27.0,-100.00,South,187,24.0,35.0,73,-99.99,,,-99.99,,2013-02-02 22:00:00,
2013-02-02 14:52:00,35.0,27.0,-100.00,South,187,24.0,35.0,73,-99.99,,,-99.99,,2013-02-02 22:52:00,
2013-02-02 15:00:00,34.0,31.0,-100.00,West,272,18.0,35.0,87,-99.99,,,-99.99,,2013-02-02 23:00:00,
2013-02-02 16:00:00,35.0,29.0,-100.00,WSW,245,15.0,22.0,77,-99.99,,,-99.99,,2013-02-03 00:00:00,
2013-02-02 17:00:00,32.0,25.0,-100.00,SSW,210,13.0,23.0,75,-99.99,,,-99.99,,2013-02-03 01:00:00,
2013-02-02 18:00:00,31.0,22.0,-100.00,SSE,153,18.0,29.0,70,-99.99,,,-99.99,,2013-02-03 02:00:00,
2013-02-02 19:00:00,32.0,21.0,-100.00,SW,218,20.0,28.0,63,-99.99,,,-99.99,,2013-02-03 03:00:00,
2013-02-02 20:00:00,31.0,21.0,-100.00,SW,233,18.0,29.0,66,-99.99,,,-99.99,,2013-02-03 04:00:00,
2013-02-02 21:00:00,31.0,21.0,-100.00,West,271,14.0,17.0,65,-99.99,,,-99.99,,2013-02-03 05:00:00,
2013-02-02 22:00:00,30.0,19.0,-100.00,West,259,10.0,17.0,64,-99.99,,,-99.99,,2013-02-03 06:00:00,
2013-02-02 23:00:00,30.0,23.0,-100.00,West,263,6.0,12.0,74,-99.99,,,-99.99,,2013-02-03 07:00:00,